Regional Weather Roundup
Issued by NWS Bismarck, ND

Home | Current Version | Previous Version | Text Only | Print | Product List | Glossary On
Versions: 1 2 3 4 5 6 7 8 9 10 11 12 13 14 15 16 17 18 19 20 21 22 23 24 25 26 27 28 29 30 31 32 33 34 35 36 37 38 39 40 41 42 43 44 45 46 47 48 49 50
000
ASUS43 KBIS 051002
RWRBIS

NWR BROADCAST TEXT
NATIONAL WEATHER SERVICE BISMARCK ND
400 AM CST MON DEC 05 2016

NOTE: "FAIR" INDICATES FEW OR NO CLOUDS BELOW 12,000 FEET WITH NO
SIGNIFICANT WEATHER AND/OR OBSTRUCTIONS TO VISIBILITY.


CITY           SKY/WX    TMP DP  RH WIND       PRES   REMARKS
WILLISTON      MOCLDY    25  23  92 SW5       29.48S WCI  19
MINOT          CLOUDY    19  16  88 E7        29.53F WCI  10
MINOT AFB      CLOUDY    18  15  91 E9        29.52F WCI   6
BISMARCK       CLOUDY    19  16  88 N6        29.58S WCI  11
DICKINSON      CLOUDY    29  24  82 SW7       29.49R
GARRISON         N/A     23  20  88 E8        29.50F WCI  14
HETTINGER ARPT CLOUDY    19  15  84 NW3       29.52S
JAMESTOWN      CLOUDY    24  22  91 E5        29.62F WCI  18
CARRINGTON     PTSUNNY   23  21  93 SE12      29.62F WCI  12
HAZEN          CLOUDY    27  21  80 NW5       29.53F
RUGBY            N/A     19  19 100 E15       29.58F FOG     WCI   5
STANLEY        CLOUDY    25  25 100 VRB3      29.50F
TIOGA          CLOUDY    28  28 100 E7        29.47F
WATFORD CITY   FAIR      28  25  86 SW10      29.49R WCI  19
$$

CITY           SKY/WX    TMP DP  RH WIND       PRES   REMARKS
GRAND FORKS    CLOUDY    26  23  88 CALM      29.70F
GRAND FORKS AF CLOUDY    26  24  93 SE5       29.69F
DEVILS LAKE    FOG       23  22  96 E10       29.64F VSB 1/2 WCI  12
FARGO          PTCLDY    21  18  88 CALM      29.70F
CANDO          FOG       23  23 100 SE9       29.66S VSB 1/2 WCI  13
CAVALIER         N/A     28  27  93 S8        29.70R
GRAFTON        CLOUDY    27  27 100 SW6       29.73R WCI  20
GWINNER        CLOUDY    28  28 100 E6        29.66F
LANGDON        FOG       23  23 100 SE8       29.64F VSB 1/4 WCI  14
$$

CITY           SKY/WX    TMP DP  RH WIND       PRES   REMARKS
ABERDEEN       CLOUDY    30  25  81 E7        29.61F
MOBRIDGE       CLEAR     32  20  61 E12       29.51F
BUFFALO          N/A     34  27  75 NW23      29.45R
RAPID CITY     CLOUDY    33  21  61 NE3       29.48F
GLASGOW        CLOUDY    24  19  81 NW29G38   29.60R WCI   7
SIDNEY         PTCLDY    32  30  92 W16G23    29.50F
WOLF POINT     CLOUDY    32  30  92 SW17      29.54R
GLENDIVE       CLOUDY    31  27  85 W23       29.53F WCI  18
MILES CITY     CLOUDY    32  26  78 NW24G30   29.61R WCI  19
BAKER          CLOUDY    31  28  89 W13       29.57R
$$

CITY           SKY/WX    TMP DP  RH WIND       PRES   REMARKS
BILLINGS       CLOUDY    28  15  58 NW22      29.65R WCI  14
GREAT FALLS    CLOUDY    19  16  88 NW10      29.81R WCI   7
$$





USA.gov is the U.S. government's official web portal to all federal, state and local government web resources and services.